User: anonymous   Login
Location: Unspecified
(0.0000°N, 0.0000°E)
Time: 21:56:25
(UTC+02:00)
Language:

YAOGAN 3 - Orbit

View from above orbital plane
View from above orbital plane
View from above satellite
View from above satellite

Ground track
Ground track

The orbit data is extracted from the following two-line orbital elements,

1 32289U 07055A   16239.48659342  .00000002  00000-0  71626-5 0  9992
2 32289  97.9892 236.3601 0001438 102.8993 257.2391 14.80725944475121
Epoch (UTC): 26 August 2016 11:40:41
Eccentricity: 0.0001438
inclination: 97.9892°
perigee height: 626 km
apogee height: 628 km
right ascension of ascending node: 236.3601°
argument of perigee: 102.8993°
revolutions per day: 14.80725944
mean anomaly at epoch: 257.2391°
orbit number at epoch: 47512

The dashed part of the orbit path shows where the satellite is in the earth's shadow,  

DLR